WA4FG Weather Reports


Display with metric or nautical units.
time (UTC)temp
F
wind
direction
speed
MPH
gust
MPH
rain 1hr
in
rain 24hr
in
rain mn
in
humidity
%
barometer
mb
20260831224025 90 190 0.0 4.0 0.00 0.00 0.00 62 1017.0
20260831223523 90 176 0.0 2.0 0.00 0.00 0.00 60 1017.0
20260831222459 91 165 0.0 0.0 0.00 0.00 0.00 59 1017.0
20260831221952 91 165 0.0 1.0 0.00 0.00 0.00 61 1017.0
20260831221425 91 231 0.0 1.0 0.00 0.00 0.00 61 1017.1
20260831220900 91 233 0.0 1.0 0.00 0.00 0.00 58 1017.1
20260831220400 92 186 0.0 5.0 0.00 0.00 0.00 60 1017.0
20260831215828 92 185 0.0 5.0 0.00 0.00 0.00 57 1017.1
20260831215315 92 244 0.0 4.0 0.00 0.00 0.00 57 1017.1
20260831214736 92 355 0.0 2.0 0.00 0.00 0.00 58 1017.1
20260831214232 92 166 0.0 1.0 0.00 0.00 0.00 57 1017.2
20260831213206 92 263 0.0 4.0 0.00 0.00 0.00 59 1017.2
20260831212624 92 177 0.0 1.0 0.00 0.00 0.00 56 1017.3
20260831212056 92 198 0.0 5.0 0.00 0.00 0.00 54 1017.4
20260831211551 92 198 0.0 4.0 0.00 0.00 0.00 57 1017.4
20260831211048 92 298 1.0 6.0 0.00 0.00 0.00 56 1017.4
20260831210548 92 238 1.0 6.0 0.00 0.00 0.00 54 1017.6
20260831210101 92 178 0.0 4.0 0.00 0.00 0.00 54 1017.4
20260831205508 92 144 0.0 1.0 0.00 0.00 0.00 55 1017.6
20260831204947 92 144 0.0 2.0 0.00 0.00 0.00 54 1017.5
20260831204442 92 132 0.0 2.0 0.00 0.00 0.00 54 1017.6
20260831203941 92 198 0.0 1.0 0.00 0.00 0.00 56 1017.6
20260831203410 92 198 0.0 0.0 0.00 0.00 0.00 55 1017.6
20260831202909 93 198 0.0 0.0 0.00 0.00 0.00 54 1017.6
20260831202401 93 198 0.0 1.0 0.00 0.00 0.00 54 1017.8
20260831201836 93 153 0.0 1.0 0.00 0.00 0.00 55 1017.8
20260831201342 93 149 0.0 1.0 0.00 0.00 0.00 54 1017.8
20260831200824 93 200 0.0 1.0 0.00 0.00 0.00 54 1017.8
20260831195810 94 214 0.0 1.0 0.00 0.00 0.00 53 1018.0
20260831195312 94 213 0.0 1.0 0.00 0.00 0.00 54 1018.1
20260831194745 94 213 0.0 0.0 0.00 0.00 0.00 52 1018.1
20260831194243 94 213 0.0 1.0 0.00 0.00 0.00 53 1018.1
20260831193718 94 195 0.0 1.0 0.00 0.00 0.00 56 1018.2
20260831193210 94 218 0.0 1.0 0.00 0.00 0.00 57 1018.2
20260831192707 94 219 0.0 1.0 0.00 0.00 0.00 56 1018.3
20260831191645 94 248 0.0 0.0 0.00 0.00 0.00 56 1018.3
20260831190625 93 248 0.0 1.0 0.00 0.00 0.00 56 1018.5
20260831190115 93 248 0.0 1.0 0.00 0.00 0.00 56 1018.5
20260831185006 94 240 0.0 1.0 0.00 0.00 0.00 55 1018.7
20260831184443 93 244 0.0 1.0 0.00 0.00 0.00 56 1018.8
20260831183919 93 290 0.0 5.0 0.00 0.00 0.00 55 1018.9
20260831183357 93 128 0.0 5.0 0.00 0.00 0.00 56 1019.0
20260831182834 93 217 0.0 1.0 0.00 0.00 0.00 56 1019.0
20260831182332 93 217 0.0 1.0 0.00 0.00 0.00 57 1019.0
20260831181833 92 215 0.0 1.0 0.00 0.00 0.00 56 1019.2
20260831181308 92 212 1.0 5.0 0.00 0.00 0.00 58 1019.2
20260831180747 92 195 0.0 5.0 0.00 0.00 0.00 59 1019.2
20260831180245 91 266 0.0 1.0 0.00 0.00 0.00 59 1019.3
20260831175747 91 266 0.0 5.0 0.00 0.00 0.00 59 1019.4
20260831175239 90 111 0.0 5.0 0.00 0.00 0.00 61 1019.5
20260831174711 90 200 0.0 1.0 0.00 0.00 0.00 63 1019.5
20260831174146 90 197 0.0 0.0 0.00 0.00 0.00 66 1019.6
20260831173642 90 196 0.0 0.0 0.00 0.00 0.00 65 1019.6
20260831173136 91 197 0.0 0.0 0.00 0.00 0.00 61 1019.7
20260831172135 92 197 0.0 5.0 0.00 0.00 0.00 59 1019.8
20260831171555 92 221 0.0 6.0 0.00 0.00 0.00 59 1019.8
20260831171030 91 184 0.0 6.0 0.00 0.00 0.00 61 1019.8
20260831170508 90 134 0.0 1.0 0.00 0.00 0.00 63 1019.9
20260831170006 90 164 0.0 1.0 0.00 0.00 0.00 66 1019.9
20260831165505 89 162 0.0 0.0 0.00 0.00 0.00 66 1020.0
20260831165002 90 162 0.0 0.0 0.00 0.00 0.00 65 1020.0
20260831163900 89 162 0.0 1.0 0.00 0.00 0.00 67 1020.2
20260831163332 89 162 0.0 0.0 0.00 0.00 0.00 68 1020.3
20260831162319 89 162 0.0 1.0 0.00 0.00 0.00 66 1020.3
20260831161818 88 162 0.0 0.0 0.00 0.00 0.00 68 1020.4
20260831161239 88 161 0.0 0.0 0.00 0.00 0.00 70 1020.4
20260831160708 88 161 0.0 0.0 0.00 0.00 0.00 67 1020.5
20260831160204 88 161 0.0 0.0 0.00 0.00 0.00 69 1020.5
20260831155146 88 162 0.0 4.0 0.00 0.00 0.00 68 1020.6
20260831154648 89 162 0.0 5.0 0.00 0.00 0.00 67 1020.6
20260831154114 88 140 0.0 5.0 0.00 0.00 0.00 70 1020.6
20260831153612 88 184 0.0 4.0 0.00 0.00 0.00 71 1020.5
20260831153108 88 184 0.0 4.0 0.00 0.00 0.00 69 1020.5
20260831152042 87 151 0.0 0.0 0.00 0.00 0.00 71 1020.5
20260831151544 87 326 0.0 0.0 0.00 0.00 0.00 70 1020.5
20260831151025 87 236 0.0 0.0 0.00 0.00 0.00 75 1020.5
20260831150524 87 236 0.0 0.0 0.00 0.00 0.00 71 1020.5
20260831150018 87 245 0.0 0.0 0.00 0.00 0.00 72 1020.5
20260831145520 86 245 0.0 0.0 0.00 0.00 0.00 73 1020.5
20260831144956 86 245 0.0 0.0 0.00 0.00 0.00 75 1020.6
20260831143954 84 245 0.0 0.0 0.00 0.00 0.00 77 1020.6
20260831142402 82 245 0.0 0.0 0.00 0.00 0.00 83 1020.5
20260831141901 81 245 0.0 0.0 0.00 0.00 0.00 84 1020.6
20260831140326 79 245 0.0 0.0 0.00 0.00 0.00 90 1020.7
20260831135822 79 245 0.0 0.0 0.00 0.00 0.00 92 1020.7
20260831134730 77 245 0.0 0.0 0.00 0.00 0.00 96 1020.7
20260831134226 76 246 0.0 0.0 0.00 0.00 0.00 97 1020.7
20260831133715 76 246 0.0 0.0 0.00 0.00 0.00 98 1020.8
20260831133214 76 246 0.0 0.0 0.00 0.00 0.00 98 1020.7
20260831132646 75 246 0.0 0.0 0.00 0.00 0.00 100 1020.7
20260831132143 75 246 0.0 0.0 0.00 0.00 0.00 100 1020.7
20260831131617 75 246 0.0 0.0 0.00 0.00 0.00 100 1020.7
20260831131050 75 246 0.0 0.0 0.00 0.00 0.00 100 1020.6
20260831130037 74 246 0.0 0.0 0.00 0.00 0.00 100 1020.7
20260831124942 74 246 0.0 0.0 0.00 0.00 0.00 100 1020.4
20260831124438 73 246 0.0 0.0 0.00 0.00 0.00 100 1020.5
20260831123936 73 246 0.0 0.0 0.00 0.00 0.00 100 1020.4
20260831123426 73 246 0.0 0.0 0.00 0.00 0.00 100 1020.3
20260831122420 73 246 0.0 0.0 0.00 0.00 0.00 100 1020.2
20260831121916 73 246 0.0 0.0 0.00 0.00 0.00 100 1020.1
20260831121403 73 246 0.0 0.0 0.00 0.00 0.00 100 1019.9
20260831120911 73 246 0.0 0.0 0.00 0.00 0.00 100 1019.8
20260831115857 72 246 0.0 0.0 0.00 0.00 0.00 100 1019.7
20260831114805 72 246 0.0 0.0 0.00 0.00 0.00 100 1019.5
20260831114241 72 246 0.0 0.0 0.00 0.00 0.00 100 1019.6
20260831113713 72 246 0.0 0.0 0.00 0.00 0.00 100 1019.5
20260831112145 72 246 0.0 0.0 0.00 0.00 0.00 100 1019.4
20260831111617 72 246 0.0 0.0 0.00 0.00 0.00 99 1019.3
20260831110549 73 246 0.0 0.0 0.00 0.00 0.00 99 1019.2
20260831110040 73 246 0.0 0.0 0.00 0.00 0.00 99 1019.1
20260831105537 73 246 0.0 0.0 0.00 0.00 0.00 99 1019.1
20260831105020 73 246 0.0 0.0 0.00 0.00 0.00 99 1019.1
20260831104518 73 246 0.0 0.0 0.00 0.00 0.00 99 1019.0
20260831104016 73 246 0.0 0.0 0.00 0.00 0.00 99 1019.0
20260831103451 73 246 0.0 0.0 0.00 0.00 0.00 99 1019.0
20260831101905 73 246 0.0 0.0 0.00 0.00 0.00 99 1018.8
20260831101345 73 246 0.0 0.0 0.00 0.00 0.00 99 1018.9
20260831100837 73 246 0.0 0.0 0.00 0.00 0.00 99 1018.9
20260831100347 73 246 0.0 0.0 0.00 0.00 0.00 99 1018.9
20260831095726 73 246 0.0 0.0 0.00 0.00 0.00 99 1018.8
20260831095225 73 246 0.0 0.0 0.00 0.00 0.00 99 1018.8
20260831094722 73 246 0.0 0.0 0.00 0.00 0.00 99 1018.8
20260831093215 73 246 0.0 0.0 0.00 0.00 0.00 99 1018.8
20260831092646 73 246 0.0 0.0 0.00 0.00 0.00 98 1018.7
20260831091644 73 246 0.0 0.0 0.00 0.00 0.00 98 1018.6
20260831091117 73 246 0.0 0.0 0.00 0.00 0.00 98 1018.7
20260831090115 73 246 0.0 0.0 0.00 0.00 0.00 98 1018.6
20260831085015 73 246 0.0 0.0 0.00 0.00 0.00 98 1018.5
20260831084511 73 246 0.0 0.0 0.00 0.00 0.00 98 1018.4
20260831084012 73 246 0.0 0.0 0.00 0.00 0.00 98 1018.4
20260831083459 73 246 0.0 0.0 0.00 0.00 0.00 98 1018.4
20260831082958 74 246 0.0 0.0 0.00 0.00 0.00 98 1018.3
20260831081907 74 246 0.0 0.0 0.00 0.00 0.00 98 1018.2
20260831081405 74 246 0.0 0.0 0.00 0.00 0.00 97 1018.2
20260831080905 74 246 0.0 0.0 0.00 0.00 0.00 98 1018.2
20260831075902 74 243 0.0 0.0 0.00 0.00 0.00 97 1018.3
20260831074828 74 243 0.0 0.0 0.00 0.00 0.00 97 1018.1
20260831074325 74 243 0.0 0.0 0.00 0.00 0.00 97 1018.1
20260831073821 74 242 0.0 0.0 0.00 0.00 0.00 97 1018.0
20260831073257 74 243 0.0 0.0 0.00 0.00 0.00 97 1018.0
20260831072727 74 242 0.0 0.0 0.00 0.00 0.00 97 1018.1
20260831072209 74 242 0.0 0.0 0.00 0.00 0.00 97 1018.1
20260831071644 74 243 0.0 0.0 0.00 0.00 0.00 97 1018.1
20260831071119 74 242 0.0 0.0 0.00 0.00 0.00 97 1018.1
20260831070615 74 242 0.0 0.0 0.00 0.00 0.00 97 1018.1
20260831065552 75 242 0.0 0.0 0.00 0.00 0.00 96 1018.1
20260831065019 75 242 0.0 0.0 0.00 0.00 0.00 96 1018.1
20260831063517 75 243 0.0 0.0 0.00 0.00 0.00 96 1018.2
20260831063016 75 242 0.0 0.0 0.00 0.00 0.00 96 1018.2
20260831062513 75 242 0.0 0.0 0.00 0.00 0.00 96 1018.2
20260831062011 75 242 0.0 0.0 0.00 0.00 0.00 96 1018.3
20260831061509 75 242 0.0 0.0 0.00 0.00 0.00 95 1018.3
20260831060940 75 242 0.0 0.0 0.00 0.00 0.00 95 1018.2
20260831060437 75 242 0.0 0.0 0.00 0.00 0.00 95 1018.2
20260831055911 75 243 0.0 0.0 0.00 0.00 0.00 95 1018.3
20260831055404 75 242 0.0 0.0 0.00 0.00 0.00 95 1018.3
20260831054902 75 242 0.0 0.0 0.00 0.00 0.00 95 1018.3
20260831054402 75 242 0.0 0.0 0.00 0.00 0.00 95 1018.3
20260831053830 75 242 0.0 0.0 0.00 0.00 0.00 95 1018.4
20260831052818 75 242 0.0 0.0 0.00 0.00 0.00 94 1018.3
20260831052327 75 242 0.0 0.0 0.00 0.00 0.00 94 1018.3
20260831051301 75 242 0.0 0.0 0.00 0.00 0.00 94 1018.4
20260831050759 75 242 0.0 0.0 0.00 0.00 0.00 94 1018.4
20260831050301 76 243 0.0 0.0 0.00 0.00 0.00 94 1018.4
20260831045740 76 242 0.0 0.0 0.00 0.00 0.00 93 1018.5
20260831045213 76 243 0.0 0.0 0.00 0.00 0.00 93 1018.5
20260831044212 76 243 0.0 0.0 0.00 0.00 0.00 93 1018.5
20260831043643 76 242 0.0 0.0 0.00 0.00 0.00 93 1018.4
20260831043116 76 243 0.0 0.0 0.00 0.00 0.00 93 1018.4
20260831042101 76 242 0.0 0.0 0.00 0.00 0.00 92 1018.4
20260831041601 76 243 0.0 0.0 0.00 0.00 0.00 92 1018.4
20260831040508 76 243 0.0 0.0 0.00 0.00 0.00 92 1018.4
20260831040006 76 242 0.0 0.0 0.00 0.00 0.00 92 1018.3
20260831035438 76 242 0.0 0.0 0.00 0.00 0.00 91 1018.3
20260831034937 76 242 0.0 0.0 0.00 0.00 0.00 91 1018.4
20260831034420 77 243 0.0 0.0 0.00 0.00 0.00 91 1018.3
20260831033919 77 243 0.0 0.0 0.00 0.00 0.00 91 1018.4
20260831033416 77 242 0.0 0.0 0.00 0.00 0.00 91 1018.4
20260831032913 77 242 0.0 0.0 0.00 0.00 0.00 91 1018.4
20260831032409 77 242 0.0 0.0 0.00 0.00 0.00 91 1018.5
20260831031907 77 243 0.0 0.0 0.00 0.00 0.00 91 1018.4
20260831030813 77 243 0.0 0.0 0.00 0.00 0.00 90 1018.4
20260831030322 78 243 0.0 0.0 0.00 0.00 0.00 90 1018.3
20260831025807 78 243 0.0 0.0 0.00 0.00 0.00 90 1018.2
20260831025306 78 243 0.0 0.0 0.00 0.00 0.00 89 1018.3
20260831024803 78 242 0.0 0.0 0.00 0.00 0.00 89 1018.2
20260831024231 78 243 0.0 0.0 0.00 0.00 0.00 89 1018.2
20260831023705 78 243 0.0 0.0 0.00 0.00 0.00 88 1018.3
20260831023139 78 243 0.0 0.0 0.00 0.00 0.00 87 1018.3
20260831022613 78 242 0.0 0.0 0.00 0.00 0.00 87 1018.3
20260831022110 78 243 0.0 0.0 0.00 0.00 0.00 87 1018.4
20260831021054 79 243 0.0 0.0 0.00 0.00 0.00 86 1018.3
20260831020602 79 242 0.0 0.0 0.00 0.00 0.00 86 1018.3
20260831020051 79 242 0.0 0.0 0.00 0.00 0.00 85 1018.2
20260831015534 79 242 0.0 0.0 0.00 0.00 0.00 85 1018.0
20260831015008 79 242 0.0 0.0 0.00 0.00 0.00 84 1018.0
20260831014506 79 243 0.0 0.0 0.00 0.00 0.00 84 1018.0
20260831013939 80 243 0.0 0.0 0.00 0.00 0.00 84 1018.0
20260831013436 80 242 0.0 0.0 0.00 0.00 0.00 83 1018.0
20260831012931 80 242 0.0 0.0 0.00 0.00 0.00 83 1018.0
20260831012404 80 242 0.0 0.0 0.00 0.00 0.00 83 1017.7
20260831011900 80 242 0.0 0.0 0.00 0.00 0.00 82 1017.8
20260831011338 80 242 0.0 0.0 0.00 0.00 0.00 83 1017.7
20260831010839 81 242 0.0 0.0 0.00 0.00 0.00 82 1017.6
20260831005745 81 243 0.0 0.0 0.00 0.00 0.00 81 1017.5
20260831004743 82 242 0.0 0.0 0.00 0.00 0.00 79 1017.5
20260831004243 82 243 0.0 0.0 0.00 0.00 0.00 79 1017.4
20260831003744 82 242 0.0 0.0 0.00 0.00 0.00 78 1017.4
20260831003240 82 243 0.0 0.0 0.00 0.00 0.00 78 1017.3
20260831002737 83 242 0.0 0.0 0.00 0.00 0.00 78 1017.3
20260831001644 84 242 0.0 0.0 0.00 0.00 0.00 76 1017.3
20260831001140 84 242 0.0 0.0 0.00 0.00 0.00 75 1017.3
20260831000612 84 242 0.0 0.0 0.00 0.00 0.00 74 1017.2
20260831000107 85 242 0.0 0.0 0.00 0.00 0.00 72 1017.2
20260830235557 85 243 0.0 0.0 0.00 0.00 0.00 72 1017.3
20260830234526 86 242 0.0 0.0 0.00 0.00 0.00 71 1017.2
20260830234025 86 242 0.0 0.0 0.00 0.00 0.00 71 1017.2
20260830233516 86 242 0.0 0.0 0.00 0.00 0.00 68 1017.2
20260830232952 87 243 0.0 0.0 0.00 0.00 0.00 67 1017.1
20260830232455 87 242 0.0 0.0 0.00 0.00 0.00 65 1017.1
20260830231928 87 242 0.0 0.0 0.00 0.00 0.00 63 1017.2
20260830231429 88 245 0.0 0.0 0.00 0.00 0.00 66 1017.1
20260830230915 88 245 0.0 0.0 0.00 0.00 0.00 65 1017.1
20260830230413 88 245 0.0 1.0 0.00 0.00 0.00 62 1017.1
20260830225913 88 245 0.0 1.0 0.00 0.00 0.00 61 1017.0
20260830225414 89 170 0.0 1.0 0.00 0.00 0.00 69 1017.0
20260830224851 89 170 0.0 1.0 0.00 0.00 0.00 64 1017.0